Latest Weather Observations for Brisbane Airport

IDQ60901

Issued at 1:31 pm EST Friday 6 May 2016 (issued every 10 minutes, with the page automatically refreshed every 10 minutes)

About weather observations | Map of Brisbane area stations | Latest observations for Brisbane area | Other Formats
Station Details ID: 040842 Name: BRISBANE AERO Lat: -27.39 Lon: 153.13 Height: 4.51 m
Data from the previous 72 hours. | See also: Recent months at Brisbane Airport
Date/Time
EST
Tmp

°C
App
Tmp
°C
Dew
Point
°C
Rel
Hum
%
Delta-T

°C
Wind Press
QNH
hPa
Press
MSL
hPa
Rain
since
9 am
mm
Dir
 
Spd
km/h
Gust
km/h
Spd
kts
Gust
kts
06/01:00pm 25.8 25.3 16.9 58 5.5 NNE 15 20 8 11 1017.7 1017.7 0.0
06/12:30pm 25.2 24.8 16.2 57 5.5 NE 13 17 7 9 1018.1 1018.0 0.0
06/12:00pm 25.0 24.5 15.0 53 6.0 ESE 11 15 6 8 1018.4 1018.3 0.0
06/11:30am 24.6 24.3 15.5 57 5.5 SE 11 19 6 10 1018.8 1018.7 0.0
06/11:00am 24.8 25.1 16.1 58 5.3 SE 9 13 5 7 1019.3 1019.2 0.0
06/10:30am 24.4 25.2 16.4 61 4.9 E 7 15 4 8 1019.4 1019.3 0.0
06/10:00am 23.4 24.0 16.7 66 4.1 SSE 9 13 5 7 1019.6 1019.5 0.0
06/09:30am 22.5 21.8 16.4 68 3.7 SSW 15 20 8 11 1020.0 1019.9 0.0
06/09:00am 21.5 20.3 16.2 72 3.2 SSW 17 20 9 11 1020.0 1019.9 0.0
06/08:30am 20.5 19.0 16.3 77 2.5 SSW 19 26 10 14 1020.2 1020.1 0.0
06/08:00am 19.3 18.3 16.6 84 1.6 SSW 17 22 9 12 1020.0 1019.9 0.0
06/07:30am 18.6 18.1 16.8 89 1.1 SSW 15 17 8 9 1019.6 1019.5 0.0
06/07:00am 17.2 16.7 16.0 93 0.7 SSW 13 17 7 9 1019.4 1019.3 0.0
06/06:30am 17.1 15.8 15.7 91 0.8 SSW 17 19 9 10 1019.0 1018.9 0.0
06/06:00am 17.0 16.0 15.6 91 0.8 SSW 15 20 8 11 1018.6 1018.5 0.0
06/05:30am 16.5 15.4 15.3 93 0.7 SSW 15 19 8 10 1018.4 1018.3 0.0
06/05:00am 16.4 15.3 15.4 94 0.6 SSW 15 19 8 10 1018.2 1018.1 0.0
06/04:30am 16.1 15.3 15.2 94 0.5 SSW 13 17 7 9 1018.1 1018.0 0.0
06/04:00am 16.5 15.5 15.6 94 0.5 SSW 15 17 8 9 1018.0 1017.9 0.0
06/03:30am 16.8 15.9 15.8 94 0.6 SSW 15 17 8 9 1017.8 1017.8 0.0
06/03:00am 16.6 15.6 15.7 94 0.5 SSW 15 19 8 10 1018.0 1017.9 0.0
06/02:30am 17.2 16.4 16.2 94 0.6 SSW 15 17 8 9 1018.1 1018.0 0.0
06/02:00am 17.6 17.2 16.3 92 0.8 SSW 13 19 7 10 1018.3 1018.2 0.0
06/01:30am 17.1 17.0 15.9 93 0.7 SW 11 13 6 7 1018.6 1018.5 0.0
06/01:00am 17.1 17.4 16.1 94 0.6 SSW 9 11 5 6 1018.6 1018.5 0.0
06/12:30am 17.6 18.0 16.3 92 0.8 SSW 9 13 5 7 1018.8 1018.7 0.0
06/12:00am 17.4 17.3 16.0 91 0.8 SSW 11 13 6 7 1019.0 1018.9 0.0
 
Date/Time
EST
Tmp

°C
App
Tmp
°C
Dew
Point
°C
Rel
Hum
%
Delta-T

°C
Wind Press
QNH
hPa
Press
MSL
hPa
Rain
since
9 am
mm
Dir
 
Spd
km/h
Gust
km/h
Spd
kts
Gust
kts
05/11:30pm 18.3 18.7 16.3 88 1.2 SSW 9 9 5 5 1019.1 1019.0 0.0
05/11:00pm 18.0 18.4 16.3 90 1.0 SSW 9 9 5 5 1019.2 1019.1 0.0
05/10:30pm 18.8 19.6 16.3 85 1.5 SSW 7 9 4 5 1019.3 1019.2 0.0
05/10:00pm 18.8 19.1 16.1 84 1.6 SSW 9 11 5 6 1019.4 1019.3 0.0
05/09:30pm 18.9 19.6 16.2 84 1.6 S 7 9 4 5 1019.6 1019.5 0.0
05/09:00pm 18.5 20.2 16.3 87 1.3 ESE 2 6 1 3 1019.7 1019.6 0.0
05/08:30pm 20.4 21.9 17.5 83 1.8 ESE 6 7 3 4 1019.7 1019.6 0.0
05/08:00pm 21.1 22.6 17.7 81 2.1 E 6 7 3 4 1019.6 1019.5 0.0
05/07:30pm 21.3 22.4 17.0 76 2.6 E 7 9 4 5 1019.2 1019.1 0.0
05/07:00pm 21.3 22.2 16.7 75 2.8 ESE 7 9 4 5 1019.0 1018.9 0.0
05/06:30pm 21.5 22.2 16.2 72 3.2 ESE 7 11 4 6 1018.7 1018.6 0.0
05/06:00pm 21.8 22.0 15.8 68 3.6 ESE 9 13 5 7 1018.3 1018.2 0.0
05/05:30pm 22.4 22.6 15.7 66 4.0 ESE 9 15 5 8 1018.2 1018.1 0.0
05/05:00pm 22.8 23.2 16.4 67 3.9 ESE 9 17 5 9 1018.0 1017.9 0.0
05/04:30pm 23.3 23.1 16.8 67 4.0 E 13 20 7 11 1017.8 1017.8 0.0
05/04:00pm 23.9 23.2 16.4 63 4.6 ESE 15 26 8 14 1017.7 1017.7 0.0
05/03:30pm 24.2 23.4 16.1 60 4.9 ESE 15 24 8 13 1017.7 1017.7 0.0
05/03:00pm 24.4 23.9 16.0 59 5.1 E 13 20 7 11 1017.7 1017.7 0.0
05/02:30pm 24.8 23.8 15.5 56 5.6 ESE 15 24 8 13 1017.5 1017.5 0.0
05/02:00pm 25.1 24.1 15.5 55 5.8 ESE 15 24 8 13 1017.6 1017.6 0.0
05/01:30pm 25.2 24.1 15.4 54 5.9 ESE 15 24 8 13 1017.8 1017.8 0.0
05/01:00pm 25.0 23.3 14.8 53 6.1 ESE 17 26 9 14 1018.2 1018.1 0.0
05/12:30pm 25.5 23.9 15.0 52 6.3 E 17 28 9 15 1018.5 1018.4 0.0
05/12:00pm 25.1 23.5 15.1 53 6.0 ESE 17 26 9 14 1019.0 1018.9 0.0
05/11:30am 25.0 23.6 15.6 56 5.7 ESE 17 22 9 12 1019.3 1019.2 0.0
05/11:00am 25.2 24.4 16.0 56 5.6 ESE 15 24 8 13 1019.8 1019.7 0.0
05/10:30am 24.8 24.4 15.1 54 5.8 SE 11 15 6 8 1020.0 1019.9 0.0
05/10:00am 24.0 23.9 15.9 60 4.9 S 11 17 6 9 1020.3 1020.2 0.0
05/09:30am 23.0 22.3 15.3 62 4.6 S 13 19 7 10 1020.7 1020.6 0.0
05/09:00am 21.5 20.3 15.1 67 3.8 SW 15 19 8 10 1020.9 1020.8 0.0
05/08:30am 20.3 19.1 15.0 71 3.1 SSW 15 19 8 10 1020.7 1020.6 0.0
05/08:00am 19.0 17.9 15.2 78 2.2 SSW 15 19 8 10 1020.3 1020.2 0.0
05/07:30am 17.8 16.7 15.2 85 1.5 SSW 15 19 8 10 1020.0 1019.9 0.0
05/07:00am 16.5 15.1 14.6 88 1.1 SSW 15 19 8 10 1019.7 1019.6 0.0
05/06:30am 15.9 13.8 13.6 86 1.3 SSW 17 20 9 11 1019.3 1019.2 0.0
05/06:00am 16.2 14.4 13.3 83 1.6 SSW 15 17 8 9 1019.1 1019.0 0.0
05/05:30am 16.1 13.9 13.4 84 1.5 SSW 17 19 9 10 1018.7 1018.6 0.0
05/05:00am 16.2 14.5 13.7 85 1.4 SSW 15 19 8 10 1018.4 1018.3 0.0
05/04:30am 15.7 13.7 13.9 89 1.0 SSW 17 20 9 11 1018.3 1018.2 0.0
05/04:00am 15.6 14.1 14.2 91 0.8 SSW 15 17 8 9 1018.1 1018.0 0.0
05/03:30am 16.1 14.6 14.3 89 1.0 SSW 15 17 8 9 1018.0 1017.9 0.0
05/03:00am 16.2 15.0 15.0 93 0.7 SSW 15 19 8 10 1017.7 1017.7 0.0
05/02:30am 17.9 16.9 15.7 87 1.3 SSW 15 19 8 10 1017.6 1017.6 0.0
05/02:00am 17.3 16.8 15.8 91 0.9 SSW 13 17 7 9 1017.7 1017.7 0.0
05/01:30am 17.4 16.9 15.9 91 0.9 SSW 13 17 7 9 1017.8 1017.8 0.0
05/01:00am 16.6 16.0 15.6 94 0.6 SSW 13 17 7 9 1018.1 1018.0 0.0
05/12:30am 16.8 17.1 15.9 94 0.5 SSW 9 11 5 6 1018.3 1018.2 0.0
05/12:00am 17.7 18.1 16.2 91 0.9 SSW 9 11 5 6 1018.4 1018.3 0.0
 
Date/Time
EST
Tmp

°C
App
Tmp
°C
Dew
Point
°C
Rel
Hum
%
Delta-T

°C
Wind Press
QNH
hPa
Press
MSL
hPa
Rain
since
9 am
mm
Dir
 
Spd
km/h
Gust
km/h
Spd
kts
Gust
kts
04/11:30pm 17.5 18.2 16.0 91 0.9 SSW 7 9 4 5 1018.7 1018.6 0.0
04/11:00pm 17.8 18.3 16.5 92 0.8 SSW 9 13 5 7 1018.7 1018.6 0.0
04/10:30pm 18.7 19.3 16.7 88 1.2 SSW 9 11 5 6 1018.9 1018.8 0.0
04/10:00pm 18.7 19.2 16.5 87 1.3 SW 9 9 5 5 1018.9 1018.8 0.0
04/09:30pm 19.8 20.4 16.8 83 1.8 WSW 9 11 5 6 1018.8 1018.7 0.0
04/09:00pm 19.8 22.3 17.2 85 1.6 CALM 0 0 0 0 1018.6 1018.5 0.0
04/08:30pm 21.5 23.6 18.1 81 2.1 E 4 9 2 5 1018.5 1018.4 0.0
04/08:00pm 22.0 22.9 17.5 75 2.8 E 9 13 5 7 1018.2 1018.1 0.0
04/07:30pm 22.4 22.8 17.2 72 3.2 ESE 11 17 6 9 1017.7 1017.7 0.0
04/07:00pm 22.4 22.6 16.8 70 3.4 E 11 20 6 11 1017.4 1017.4 0.0
04/06:30pm 22.5 22.2 16.4 68 3.7 ESE 13 20 7 11 1017.0 1017.0 0.0
04/06:00pm 22.7 22.2 15.9 65 4.1 ESE 13 20 7 11 1016.6 1016.6 0.0
04/05:30pm 22.8 22.6 15.8 64 4.2 E 11 22 6 12 1016.1 1016.1 0.0
04/05:00pm 23.2 22.4 15.0 60 4.9 E 13 22 7 12 1015.7 1015.7 0.0
04/04:30pm 23.7 21.7 13.8 53 5.8 E 17 28 9 15 1015.4 1015.4 0.0
04/04:00pm 24.4 22.0 12.6 47 6.8 E 17 26 9 14 1015.1 1015.1 0.0
04/03:30pm 24.9 22.6 11.7 43 7.5 E 15 24 8 13 1014.9 1014.9 0.0
04/03:00pm 25.0 22.3 11.8 43 7.5 ESE 17 28 9 15 1014.5 1014.5 0.0
04/02:30pm 25.3 22.2 11.5 42 7.8 E 19 30 10 16 1014.1 1014.1 0.0
04/02:00pm 25.2 22.3 9.7 37 8.5 E 15 22 8 12 1014.2 1014.2 0.0
04/01:30pm 25.5 22.6 10.9 40 8.2 E 17 26 9 14 1014.1 1014.1 0.0
04/01:00pm 26.2 24.2 10.0 36 9.0 E 11 19 6 10 1014.2 1014.2 0.0
04/12:30pm 26.5 22.5 5.1 25 10.9 S 15 20 8 11 1014.4 1014.4 0.0
04/12:00pm 26.6 22.2 5.0 25 11.0 SSW 17 24 9 13 1014.9 1014.9 0.0
04/11:30am 26.0 21.4 5.5 27 10.5 SW 19 30 10 16 1015.2 1015.2 0.0
04/11:00am 25.6 21.7 6.9 30 9.8 SW 17 28 9 15 1015.9 1015.9 0.0
04/10:30am 24.8 21.0 8.9 36 8.6 SW 19 28 10 15 1016.3 1016.3 0.0
04/10:00am 24.3 20.9 10.4 41 7.7 SSW 19 28 10 15 1016.6 1016.6 0.0
04/09:30am 23.5 20.6 12.2 49 6.4 SSW 19 26 10 14 1016.8 1016.8 0.0
04/09:00am 22.6 20.5 13.6 56 5.2 SSW 17 24 9 13 1016.9 1016.9 0.0
04/08:30am 21.3 20.5 15.0 67 3.7 SSW 13 17 7 9 1016.8 1016.8 -
04/08:00am 19.2 19.8 15.8 81 2.0 SSW 7 9 4 5 1016.6 1016.6 -
04/07:30am 18.9 20.9 15.9 83 1.8 CALM 0 2 0 1 1015.9 1015.9 -
04/07:00am 18.7 19.1 15.3 80 2.0 WSW 7 9 4 5 1015.6 1015.6 -
04/06:30am 17.2 17.8 15.3 88 1.1 WNW 6 9 3 5 1015.0 1015.0 -
04/06:00am 16.9 17.0 15.4 91 0.9 W 9 11 5 6 1014.4 1014.4 -
04/05:30am 17.4 19.4 15.9 91 0.9 CALM 0 0 0 0 1014.2 1014.2 -
04/05:00am 16.9 17.9 15.4 91 0.9 N 4 7 2 4 1013.9 1013.9 -
04/04:30am 17.3 19.2 15.8 91 0.9 CALM 0 0 0 0 1013.3 1013.3 -
04/04:00am 18.0 19.3 16.1 89 1.1 SSW 4 7 2 4 1013.1 1013.1 -
04/03:30am 18.8 21.0 16.5 86 1.4 CALM 0 0 0 0 1012.9 1012.9 -
04/03:00am 18.8 20.8 16.1 84 1.6 CALM 0 7 0 4 1012.6 1012.6 0.0
04/02:30am 19.4 21.4 15.9 80 2.1 CALM 0 0 0 0 1012.9 1012.9 -
04/02:00am 20.2 21.4 16.0 77 2.5 W 4 7 2 4 1012.7 1012.7 -
04/01:30am 20.6 20.4 15.6 73 3.0 WNW 11 13 6 7 1013.0 1013.0 -
04/01:00am 20.2 20.7 16.6 80 2.2 WNW 9 11 5 6 1013.1 1013.1 -
04/12:30am 20.4 22.6 16.6 79 2.3 CALM 0 0 0 0 1013.3 1013.3 -
04/12:00am 20.5 22.8 17.6 83 1.8 W 2 7 1 4 1013.4 1013.4 -
 
Date/Time
EST
Tmp

°C
App
Tmp
°C
Dew
Point
°C
Rel
Hum
%
Delta-T

°C
Wind Press
QNH
hPa
Press
MSL
hPa
Rain
since
9 am
mm
Dir
 
Spd
km/h
Gust
km/h
Spd
kts
Gust
kts
03/11:30pm 20.5 23.5 18.4 88 1.3 CALM 0 0 0 0 1013.3 1013.3 -
03/11:00pm 20.3 22.7 17.9 86 1.5 W 2 11 1 6 1013.4 1013.4 -
03/10:30pm 21.0 22.5 18.1 83 1.8 NW 7 9 4 5 1013.4 1013.4 -
03/10:00pm 21.3 24.5 18.8 86 1.6 CALM 0 4 0 2 1013.6 1013.6 -
03/09:30pm 21.3 23.1 19.6 90 1.1 NNW 9 9 5 5 1013.6 1013.6 -
03/09:00pm 21.5 25.0 20.3 93 0.8 NW 2 6 1 3 1013.6 1013.6 0.0
03/08:30pm 22.1 24.8 20.7 92 0.9 NW 7 9 4 5 1013.5 1013.5 -
03/08:00pm 21.7 23.6 20.6 93 0.7 N 11 13 6 7 1013.2 1013.2 -
03/07:30pm 22.2 24.2 20.8 92 0.9 N 11 17 6 9 1012.9 1012.9 -
03/07:00pm 22.4 26.1 20.7 90 1.1 NNW 2 9 1 5 1012.6 1012.6 -
03/06:30pm 22.6 24.3 20.9 90 1.1 NNW 13 19 7 10 1012.1 1012.1 -
03/06:00pm 22.7 23.7 21.0 90 1.1 N 17 20 9 11 1011.7 1011.7 -
03/05:30pm 22.9 25.5 20.4 86 1.6 N 7 13 4 7 1011.3 1011.3 -
03/05:00pm 23.1 25.6 21.1 88 1.3 NNE 9 11 5 6 1010.8 1010.8 -
03/04:30pm 25.3 26.1 19.1 68 4.0 NNE 13 15 7 8 1010.7 1010.7 -
03/04:00pm 25.4 26.6 19.0 67 4.1 NNE 11 13 6 7 1010.5 1010.5 -
03/03:30pm 26.4 27.0 18.7 62 4.9 NNE 13 15 7 8 1010.3 - -
03/03:00pm 26.0 27.0 19.5 67 4.2 NNE 13 17 7 9 1010.2 1010.2 0.0
03/02:30pm 25.6 26.0 19.9 70 3.7 NNE 17 20 9 11 1010.2 1010.2 0.0
03/02:00pm 26.8 27.6 19.9 66 4.5 NNE 15 17 8 9 1010.3 1010.3 0.0

Latest Capital City Observations: Canberra | Sydney | Melbourne | Brisbane | Adelaide | Perth | Hobart | Darwin

Other Formats:

Comma delimited format used in spreadsheet applications
http://www.bom.gov.au/fwo/IDQ60901/IDQ60901.94578.axf

JavaScript Object Notation format (JSON) in row-major order
http://www.bom.gov.au/fwo/IDQ60901/IDQ60901.94578.json